Overview Statistics Trail Chart Weather Telemetry Raw packets
 

This is the latest recevied weather packets stored in our database for station/object N3LF. If no packets are shown the sender has not sent any weather packets the latest 10 day(s).

<< 12 13 14 15 16 17 18 >>
Time Temp. Humidity Pressure Rain* Wind** Luminosity Snow
1788537662 34.44° C 61% 1019.6 hPa 0 mm - 543 W/m² -
1788537362 34.44° C 62% 1019.5 hPa 0 mm - 533 W/m² -
1788537056 35° C 62% 1019.4 hPa 0 mm - 524 W/m² -
1788536750 36.11° C 60% 1019.3 hPa 0 mm - 515 W/m² -
1788536444 33.89° C 65% 1019.5 hPa 0 mm - 508 W/m² -
1788536144 34.44° C 64% 1019.6 hPa 0 mm - 497 W/m² -
1788535841 35° C 62% 1019.3 hPa 0 mm - 487 W/m² -
1788535536 35.56° C 63% 1019.4 hPa 0 mm - 481 W/m² -
1788535231 35° C 61% 1019.4 hPa 0 mm - 470 W/m² -
1788534927 33.89° C 66% 1019.6 hPa 0 mm - 457 W/m² -
1788534626 33.89° C 67% 1019.5 hPa 0 mm - 447 W/m² -
1788534326 33.33° C 69% 1019.5 hPa 0 mm - 435 W/m² -
1788534021 33.89° C 66% 1019.3 hPa 0 mm - 427 W/m² -
1788533715 33.33° C 69% 1019.3 hPa 0 mm - 414 W/m² -
1788533411 33.33° C 67% 1019.3 hPa 0 mm - 403 W/m² -
1788533107 33.89° C 68% 1019.4 hPa 0 mm - 393 W/m² -
1788532802 33.33° C 72% 1019.2 hPa 0 mm - 379 W/m² -
1788532498 33.33° C 72% 1019.3 hPa 0 mm - 365 W/m² -
1788532195 32.22° C 72% 1019.2 hPa 0 mm - 351 W/m² -
1788531891 32.22° C 74% 1019.3 hPa 0 mm - 338 W/m² -
1788531590 31.67° C 74% 1019.1 hPa 0 mm - 327 W/m² -
1788531285 31.67° C 76% 1019 hPa 0 mm - 315 W/m² -
1788530982 31.67° C 75% 1019.3 hPa 0 mm - 300 W/m² -
1788530681 31.11° C 77% 1019.3 hPa 0 mm - 287 W/m² -
1788530380 30.56° C 78% 1019.4 hPa 0 mm - 278 W/m² -

* Rain latest hour (hover to see other rain measurements)
** Current wind speed in m/s (hover to see current wind gust speed)